TimeCDT,TemperatureF,Dew PointF,Humidity,Sea Level PressureIn,VisibilityMPH,Wind Direction,Wind SpeedMPH,Gust SpeedMPH,PrecipitationIn,Events,Conditions,WindDirDegrees,DateUTC
12:56 AM,73.0,66.0,79,29.62,-9999.0,SW,9.2,-,N/A,,Unknown,230,2013-07-22 05:56:00
1:56 AM,75.0,66.9,76,29.62,-9999.0,SSW,9.2,-,N/A,,Unknown,210,2013-07-22 06:56:00
2:56 AM,72.0,68.0,87,29.62,-9999.0,Variable,3.5,-,0.02,,Unknown,0,2013-07-22 07:56:00
3:56 AM,70.0,68.0,93,29.65,-9999.0,ENE,4.6,-,0.16,,Unknown,60,2013-07-22 08:56:00
4:56 AM,66.9,66.0,97,29.62,-9999.0,SSW,6.9,-,0.01,,Unknown,200,2013-07-22 09:56:00
5:56 AM,66.9,66.0,97,29.64,-9999.0,NNW,3.5,-,N/A,,Unknown,340,2013-07-22 10:56:00
6:56 AM,69.1,66.9,93,29.66,-9999.0,NNW,8.1,-,N/A,,Unknown,340,2013-07-22 11:56:00
7:56 AM,70.0,66.0,87,29.67,-9999.0,NNW,9.2,-,N/A,,Unknown,340,2013-07-22 12:56:00
8:56 AM,71.1,63.0,75,29.70,-9999.0,North,16.1,20.7,N/A,,Unknown,350,2013-07-22 13:56:00
9:56 AM,72.0,64.0,76,29.72,-9999.0,North,13.8,19.6,N/A,,Unknown,350,2013-07-22 14:56:00
10:56 AM,73.0,63.0,71,29.74,-9999.0,North,13.8,19.6,N/A,,Unknown,360,2013-07-22 15:56:00
11:56 AM,73.9,62.1,66,29.75,-9999.0,North,11.5,-,N/A,,Unknown,360,2013-07-22 16:56:00
12:56 PM,73.0,62.1,68,29.77,-9999.0,North,12.7,21.9,N/A,,Unknown,360,2013-07-22 17:56:00
1:56 PM,73.9,62.1,66,29.77,-9999.0,North,12.7,19.6,N/A,,Unknown,360,2013-07-22 18:56:00
2:56 PM,75.0,61.0,62,29.78,-9999.0,North,17.3,23.0,N/A,,Unknown,360,2013-07-22 19:56:00
3:56 PM,73.9,59.0,59,29.80,-9999.0,North,17.3,23.0,N/A,,Unknown,360,2013-07-22 20:56:00
4:56 PM,72.0,57.0,59,29.81,-9999.0,North,16.1,25.3,N/A,,Unknown,350,2013-07-22 21:56:00
5:56 PM,73.9,57.0,55,29.80,-9999.0,North,13.8,21.9,N/A,,Unknown,350,2013-07-22 22:56:00
6:56 PM,71.1,55.9,59,29.82,-9999.0,North,12.7,-,N/A,,Unknown,360,2013-07-22 23:56:00
7:56 PM,70.0,55.0,59,29.83,-9999.0,North,12.7,18.4,N/A,,Unknown,360,2013-07-23 00:56:00
8:56 PM,64.9,57.9,78,29.83,-9999.0,North,6.9,-,N/A,,Unknown,360,2013-07-23 01:56:00
9:56 PM,60.1,57.0,90,29.87,-9999.0,NNW,5.8,-,N/A,,Unknown,340,2013-07-23 02:56:00
10:56 PM,59.0,57.0,93,29.90,-9999.0,NNW,4.6,-,N/A,,Unknown,330,2013-07-23 03:56:00
11:56 PM,57.0,55.9,96,29.91,-9999.0,North,4.6,-,N/A,,Unknown,350,2013-07-23 04:56:00